Time,TemperatureF,DewpointF,PressureIn,WindDirection,WindDirectionDegrees,WindSpeedMPH,WindSpeedGustMPH,Humidity,HourlyPrecipIn,Conditions,Clouds,dailyrainin,SoftwareType,DateUTC
2013-02-23 00:00:00,39.9,38.8,30.08,East,99,2.0,2.0,96,0.00,,---,0.00,VWS V14.00,2013-02-23 05:00:00,
2013-02-23 00:05:00,39.9,38.8,30.07,East,99,1.0,5.0,96,0.00,,---,0.00,VWS V14.00,2013-02-23 05:05:00,
2013-02-23 00:10:00,39.9,38.8,30.07,East,99,4.0,5.0,96,0.00,,---,0.00,VWS V14.00,2013-02-23 05:10:00,
2013-02-23 00:15:00,40.0,39.0,30.07,East,98,0.0,5.0,96,0.00,,---,0.00,VWS V14.00,2013-02-23 05:15:00,
2013-02-23 00:20:00,40.0,39.0,30.07,NNE,17,3.0,6.0,96,0.00,,---,0.00,VWS V14.00,2013-02-23 05:20:00,
2013-02-23 00:25:00,40.0,39.0,30.07,NNE,17,1.0,6.0,96,0.01,,---,0.01,VWS V14.00,2013-02-23 05:25:00,
2013-02-23 00:30:00,39.9,38.8,30.07,NNE,19,0.0,3.0,96,0.01,,---,0.01,VWS V14.00,2013-02-23 05:30:00,
2013-02-23 00:35:00,40.0,39.0,30.08,NNE,19,1.0,4.0,96,0.01,,---,0.01,VWS V14.00,2013-02-23 05:35:00,
2013-02-23 00:40:00,39.9,38.8,30.07,NNE,27,4.0,6.0,96,0.02,,---,0.02,VWS V14.00,2013-02-23 05:40:00,
2013-02-23 00:45:00,39.7,38.7,30.07,NNE,24,5.0,6.0,96,0.02,,---,0.02,VWS V14.00,2013-02-23 05:45:00,
2013-02-23 00:50:00,39.7,38.7,30.06,ENE,67,4.0,7.0,96,0.02,,---,0.02,VWS V14.00,2013-02-23 05:50:00,
2013-02-23 00:55:00,39.6,38.6,30.07,NNE,27,1.0,7.0,96,0.02,,---,0.02,VWS V14.00,2013-02-23 05:55:00,
2013-02-23 01:00:00,39.6,38.6,30.06,NNE,19,2.0,4.0,96,0.02,,---,0.02,VWS V14.00,2013-02-23 06:00:00,
2013-02-23 01:05:00,39.5,38.5,30.05,ENE,67,1.0,5.0,96,0.02,,---,0.02,VWS V14.00,2013-02-23 06:05:00,
2013-02-23 01:10:00,39.5,38.5,30.05,NE,36,3.0,6.0,96,0.02,,---,0.02,VWS V14.00,2013-02-23 06:10:00,
2013-02-23 01:15:00,39.4,38.4,30.06,NE,36,3.0,6.0,96,0.02,,---,0.02,VWS V14.00,2013-02-23 06:15:00,
2013-02-23 01:22:00,39.4,38.4,30.05,East,80,4.0,4.0,96,0.00,,---,0.02,VWS V14.00,2013-02-23 06:22:00,
2013-02-23 01:27:00,39.3,38.3,30.04,NE,53,4.0,6.0,96,0.01,,---,0.02,VWS V14.00,2013-02-23 06:27:00,
2013-02-23 01:32:00,39.3,38.3,30.03,ENE,58,2.0,6.0,96,0.01,,---,0.02,VWS V14.00,2013-02-23 06:32:00,
2013-02-23 01:37:00,39.2,38.2,30.03,ESE,103,5.0,7.0,96,0.01,,---,0.02,VWS V14.00,2013-02-23 06:37:00,
2013-02-23 01:42:00,39.2,38.2,30.02,ENE,77,1.0,7.0,96,0.01,,---,0.02,VWS V14.00,2013-02-23 06:42:00,
2013-02-23 01:47:00,39.2,38.2,30.02,ESE,110,0.0,7.0,96,0.01,,---,0.02,VWS V14.00,2013-02-23 06:47:00,
2013-02-23 01:52:00,39.2,38.2,30.01,ESE,115,2.0,7.0,96,0.01,,---,0.02,VWS V14.00,2013-02-23 06:52:00,
2013-02-23 01:57:00,39.1,38.1,30.01,East,86,3.0,3.0,96,0.00,,---,0.02,VWS V14.00,2013-02-23 06:57:00,
2013-02-23 02:02:00,39.1,38.1,30.00,East,82,0.0,5.0,96,0.00,,---,0.02,VWS V14.00,2013-02-23 07:02:00,
2013-02-23 02:07:00,39.1,38.1,30.00,East,86,2.0,6.0,96,0.00,,---,0.02,VWS V14.00,2013-02-23 07:07:00,
2013-02-23 02:12:00,39.0,38.0,30.00,ENE,64,0.0,8.0,96,0.00,,---,0.02,VWS V14.00,2013-02-23 07:12:00,
2013-02-23 02:17:00,39.0,38.0,29.99,East,83,2.0,8.0,96,0.00,,---,0.02,VWS V14.00,2013-02-23 07:17:00,
2013-02-23 02:22:00,39.0,38.0,29.99,East,89,2.0,8.0,96,0.00,,---,0.02,VWS V14.00,2013-02-23 07:22:00,
2013-02-23 02:27:00,39.1,38.1,29.99,East,80,3.0,4.0,96,0.01,,---,0.03,VWS V14.00,2013-02-23 07:27:00,
2013-02-23 02:32:00,39.1,38.1,29.99,East,80,3.0,5.0,96,0.02,,---,0.04,VWS V14.00,2013-02-23 07:32:00,
2013-02-23 02:37:00,39.1,38.1,29.98,ENE,74,5.0,6.0,96,0.03,,---,0.05,VWS V14.00,2013-02-23 07:37:00,
2013-02-23 02:42:00,39.1,38.1,29.97,ENE,72,1.0,6.0,96,0.04,,---,0.06,VWS V14.00,2013-02-23 07:42:00,
2013-02-23 02:47:00,39.1,38.1,29.97,ENE,78,4.0,6.0,96,0.05,,---,0.07,VWS V14.00,2013-02-23 07:47:00,
2013-02-23 02:52:00,39.1,38.1,29.97,ESE,117,2.0,6.0,96,0.05,,---,0.07,VWS V14.00,2013-02-23 07:52:00,
2013-02-23 02:57:00,39.1,38.1,29.97,East,82,1.0,1.0,96,0.05,,---,0.07,VWS V14.00,2013-02-23 07:57:00,
2013-02-23 03:02:00,39.0,38.0,29.97,ESE,103,1.0,5.0,96,0.06,,---,0.08,VWS V14.00,2013-02-23 08:02:00,
2013-02-23 03:07:00,39.1,38.1,29.97,East,90,0.0,5.0,96,0.08,,---,0.10,VWS V14.00,2013-02-23 08:07:00,
2013-02-23 03:12:00,39.1,38.1,29.96,East,91,1.0,5.0,96,0.09,,---,0.11,VWS V14.00,2013-02-23 08:12:00,
2013-02-23 03:17:00,39.1,38.1,29.96,East,92,1.0,5.0,96,0.10,,---,0.12,VWS V14.00,2013-02-23 08:17:00,
2013-02-23 03:22:00,39.2,38.2,29.96,East,92,2.0,5.0,96,0.10,,---,0.12,VWS V14.00,2013-02-23 08:22:00,
2013-02-23 03:27:00,39.2,38.2,29.95,East,86,2.0,2.0,96,0.11,,---,0.13,VWS V14.00,2013-02-23 08:27:00,
2013-02-23 03:33:00,39.2,38.2,29.94,ENE,67,4.0,4.0,96,0.00,,---,0.15,VWS V14.00,2013-02-23 08:33:00,
2013-02-23 03:38:00,39.1,38.1,29.95,East,92,0.0,5.0,96,0.16,,---,0.18,VWS V14.00,2013-02-23 08:38:00,
2013-02-23 03:43:00,39.1,38.1,29.96,NE,48,0.0,5.0,96,0.16,,---,0.18,VWS V14.00,2013-02-23 08:43:00,
2013-02-23 03:48:00,39.2,38.2,29.95,NE,49,1.0,5.0,96,0.16,,---,0.18,VWS V14.00,2013-02-23 08:48:00,
2013-02-23 03:53:00,39.1,38.1,29.94,ENE,77,3.0,6.0,96,0.17,,---,0.19,VWS V14.00,2013-02-23 08:53:00,
2013-02-23 03:58:00,39.1,38.1,29.93,ESE,117,0.0,0.0,96,0.12,,---,0.19,VWS V14.00,2013-02-23 08:58:00,
2013-02-23 04:03:00,39.1,38.1,29.96,ENE,76,1.0,4.0,96,0.13,,---,0.20,VWS V14.00,2013-02-23 09:03:00,
2013-02-23 04:08:00,39.2,38.2,29.94,South,173,4.0,5.0,96,0.14,,---,0.21,VWS V14.00,2013-02-23 09:08:00,
2013-02-23 04:13:00,39.1,38.1,29.95,South,172,2.0,5.0,96,0.14,,---,0.21,VWS V14.00,2013-02-23 09:13:00,
2013-02-23 04:18:00,39.1,38.1,29.95,East,90,2.0,6.0,96,0.15,,---,0.22,VWS V14.00,2013-02-23 09:18:00,
2013-02-23 04:22:00,39.1,38.1,29.95,NE,41,2.0,6.0,96,0.15,,---,0.22,VWS V14.00,2013-02-23 09:22:00,
2013-02-23 04:27:00,39.0,38.0,29.95,NE,43,1.0,1.0,96,0.09,,---,0.22,VWS V14.00,2013-02-23 09:27:00,
2013-02-23 04:32:00,39.0,38.0,29.95,NE,51,1.0,4.0,96,0.10,,---,0.23,VWS V14.00,2013-02-23 09:32:00,
2013-02-23 04:37:00,38.9,37.9,29.95,NNE,23,0.0,4.0,96,0.11,,---,0.24,VWS V14.00,2013-02-23 09:37:00,
2013-02-23 04:42:00,38.9,37.9,29.95,NNE,28,2.0,4.0,96,0.13,,---,0.26,VWS V14.00,2013-02-23 09:42:00,
2013-02-23 04:47:00,38.9,37.9,29.93,NE,53,3.0,5.0,96,0.13,,---,0.26,VWS V14.00,2013-02-23 09:47:00,
2013-02-23 04:52:00,38.9,37.9,29.93,ENE,64,2.0,6.0,96,0.14,,---,0.27,VWS V14.00,2013-02-23 09:52:00,
2013-02-23 04:57:00,38.9,37.9,29.94,ENE,65,1.0,2.0,96,0.09,,---,0.28,VWS V14.00,2013-02-23 09:57:00,
2013-02-23 05:02:00,38.9,37.9,29.95,ENE,66,0.0,3.0,96,0.12,,---,0.31,VWS V14.00,2013-02-23 10:02:00,
2013-02-23 05:07:00,38.9,37.9,29.96,NE,36,0.0,7.0,96,0.15,,---,0.34,VWS V14.00,2013-02-23 10:07:00,
2013-02-23 05:12:00,38.9,37.9,29.95,NE,36,2.0,7.0,96,0.17,,---,0.36,VWS V14.00,2013-02-23 10:12:00,
2013-02-23 05:17:00,38.8,37.8,29.94,ENE,58,2.0,7.0,96,0.18,,---,0.37,VWS V14.00,2013-02-23 10:17:00,
2013-02-23 05:22:00,38.8,37.8,29.95,NE,50,1.0,7.0,96,0.19,,---,0.38,VWS V14.00,2013-02-23 10:22:00,
2013-02-23 05:27:00,38.8,37.8,29.95,SE,124,4.0,4.0,96,0.17,,---,0.39,VWS V14.00,2013-02-23 10:27:00,
2013-02-23 05:32:00,38.8,37.8,29.94,ESE,122,4.0,5.0,96,0.18,,---,0.40,VWS V14.00,2013-02-23 10:32:00,
2013-02-23 05:37:00,38.8,37.8,29.94,SE,133,2.0,7.0,96,0.20,,---,0.42,VWS V14.00,2013-02-23 10:37:00,
2013-02-23 05:42:00,38.9,37.9,29.94,SE,133,4.0,7.0,96,0.21,,---,0.43,VWS V14.00,2013-02-23 10:42:00,
2013-02-23 05:47:00,38.9,37.9,29.95,East,88,0.0,7.0,96,0.25,,---,0.47,VWS V14.00,2013-02-23 10:47:00,
2013-02-23 05:53:00,38.9,37.9,29.93,ESE,111,0.0,7.0,96,0.26,,---,0.48,VWS V14.00,2013-02-23 10:53:00,
2013-02-23 05:58:00,38.9,37.9,29.94,ESE,109,2.0,4.0,96,0.21,,---,0.49,VWS V14.00,2013-02-23 10:58:00,
2013-02-23 06:03:00,39.0,38.0,29.94,East,84,2.0,5.0,96,0.21,,---,0.49,VWS V14.00,2013-02-23 11:03:00,
2013-02-23 06:07:00,39.0,38.0,29.95,ENE,61,3.0,5.0,96,0.21,,---,0.49,VWS V14.00,2013-02-23 11:07:00,
2013-02-23 06:12:00,39.0,38.0,29.94,East,81,4.0,5.0,96,0.24,,---,0.52,VWS V14.00,2013-02-23 11:12:00,
2013-02-23 06:17:00,39.0,38.0,29.94,NE,40,0.0,5.0,96,0.24,,---,0.52,VWS V14.00,2013-02-23 11:17:00,
2013-02-23 06:22:00,39.0,38.0,29.93,SE,146,0.0,8.0,96,0.25,,---,0.53,VWS V14.00,2013-02-23 11:22:00,
2013-02-23 06:27:00,39.0,38.0,29.92,SE,132,5.0,6.0,96,0.17,,---,0.56,VWS V14.00,2013-02-23 11:27:00,
2013-02-23 06:32:00,38.9,37.9,29.92,SE,139,1.0,6.0,96,0.17,,---,0.56,VWS V14.00,2013-02-23 11:32:00,
2013-02-23 06:37:00,39.0,38.0,29.92,SE,142,2.0,6.0,96,0.18,,---,0.57,VWS V14.00,2013-02-23 11:37:00,
2013-02-23 06:43:00,39.1,38.1,29.95,NW,315,7.0,21.0,96,0.19,,---,0.58,VWS V14.00,2013-02-23 11:43:00,
2013-02-23 06:48:00,39.2,38.2,29.96,NE,34,1.0,21.0,96,0.22,,---,0.61,VWS V14.00,2013-02-23 11:48:00,
2013-02-23 06:53:00,39.2,38.2,29.98,North,355,2.0,21.0,96,0.22,,---,0.61,VWS V14.00,2013-02-23 11:53:00,
2013-02-23 06:58:00,39.2,38.2,29.95,ENE,59,0.0,1.0,96,0.13,,---,0.62,VWS V14.00,2013-02-23 11:58:00,
2013-02-23 07:03:00,39.2,38.2,29.96,NE,37,2.0,3.0,96,0.13,,---,0.62,VWS V14.00,2013-02-23 12:03:00,
2013-02-23 07:08:00,39.2,38.2,29.97,ENE,61,0.0,4.0,96,0.13,,---,0.62,VWS V14.00,2013-02-23 12:08:00,
2013-02-23 07:13:00,39.3,38.3,29.97,ENE,63,0.0,4.0,96,0.13,,---,0.62,VWS V14.00,2013-02-23 12:13:00,
2013-02-23 07:18:00,39.3,38.3,29.96,SE,133,1.0,6.0,96,0.13,,---,0.62,VWS V14.00,2013-02-23 12:18:00,
2013-02-23 07:23:00,39.3,38.3,29.95,SE,133,0.0,6.0,96,0.13,,---,0.62,VWS V14.00,2013-02-23 12:23:00,
2013-02-23 07:28:00,39.3,38.3,29.96,SE,128,0.0,0.0,96,0.07,,---,0.63,VWS V14.00,2013-02-23 12:28:00,
2013-02-23 07:33:00,39.4,38.4,29.95,SE,133,2.0,5.0,96,0.07,,---,0.63,VWS V14.00,2013-02-23 12:33:00,
2013-02-23 07:38:00,39.5,38.5,29.95,SE,133,0.0,5.0,96,0.07,,---,0.63,VWS V14.00,2013-02-23 12:38:00,
2013-02-23 07:43:00,39.5,38.5,29.95,SE,133,1.0,5.0,96,0.07,,---,0.63,VWS V14.00,2013-02-23 12:43:00,
2013-02-23 07:48:00,39.6,38.6,29.94,SE,133,0.0,5.0,96,0.07,,---,0.63,VWS V14.00,2013-02-23 12:48:00,
2013-02-23 07:53:00,39.6,38.6,29.94,SE,133,0.0,5.0,96,0.07,,---,0.63,VWS V14.00,2013-02-23 12:53:00,
2013-02-23 07:58:00,39.7,38.7,29.94,SE,133,0.0,1.0,96,0.01,,---,0.63,VWS V14.00,2013-02-23 12:58:00,
2013-02-23 08:03:00,39.8,38.8,29.94,SE,133,4.0,4.0,96,0.01,,---,0.63,VWS V14.00,2013-02-23 13:03:00,
2013-02-23 08:08:00,39.9,38.8,29.94,SE,133,0.0,4.0,96,0.01,,---,0.63,VWS V14.00,2013-02-23 13:08:00,
2013-02-23 08:13:00,40.0,39.0,29.95,SE,133,0.0,4.0,96,0.01,,---,0.63,VWS V14.00,2013-02-23 13:13:00,
2013-02-23 08:18:00,40.1,39.0,29.96,SE,133,0.0,4.0,96,0.01,,---,0.63,VWS V14.00,2013-02-23 13:18:00,
2013-02-23 08:23:00,40.2,39.2,29.95,SE,133,1.0,4.0,96,0.01,,---,0.63,VWS V14.00,2013-02-23 13:23:00,
2013-02-23 08:28:00,40.3,39.2,29.96,SE,133,0.0,1.0,96,0.00,,---,0.63,VWS V14.00,2013-02-23 13:28:00,
2013-02-23 08:33:00,40.5,39.5,29.93,SE,132,4.0,5.0,96,0.00,,---,0.63,VWS V14.00,2013-02-23 13:33:00,
2013-02-23 08:38:00,40.6,39.5,29.93,SE,132,4.0,6.0,96,0.00,,---,0.63,VWS V14.00,2013-02-23 13:38:00,
2013-02-23 08:43:00,40.7,39.7,29.94,SE,131,1.0,6.0,96,0.00,,---,0.63,VWS V14.00,2013-02-23 13:43:00,
2013-02-23 08:48:00,40.8,39.8,29.93,SE,131,4.0,6.0,96,0.00,,---,0.63,VWS V14.00,2013-02-23 13:48:00,
2013-02-23 08:53:00,40.9,39.8,29.92,SE,144,6.0,7.0,96,0.00,,---,0.63,VWS V14.00,2013-02-23 13:53:00,
2013-02-23 08:58:00,41.0,40.0,29.92,ESE,109,1.0,1.0,96,0.00,,---,0.63,VWS V14.00,2013-02-23 13:58:00,
2013-02-23 09:03:00,41.0,40.0,29.93,East,88,2.0,6.0,96,0.00,,---,0.63,VWS V14.00,2013-02-23 14:03:00,
2013-02-23 09:08:00,41.1,40.0,29.93,ESE,115,0.0,6.0,96,0.00,,---,0.63,VWS V14.00,2013-02-23 14:08:00,
2013-02-23 09:13:00,41.2,40.2,29.94,ESE,115,2.0,6.0,96,0.00,,---,0.63,VWS V14.00,2013-02-23 14:13:00,
2013-02-23 09:18:00,41.3,40.2,29.94,ESE,115,1.0,6.0,96,0.00,,---,0.63,VWS V14.00,2013-02-23 14:18:00,
2013-02-23 09:23:00,41.4,40.3,29.95,ESE,115,0.0,6.0,96,0.00,,---,0.63,VWS V14.00,2013-02-23 14:23:00,
2013-02-23 09:28:00,41.6,40.5,29.95,ESE,115,0.0,0.0,96,0.00,,---,0.63,VWS V14.00,2013-02-23 14:28:00,
2013-02-23 09:33:00,41.6,40.5,29.95,ESE,115,1.0,1.0,96,0.00,,---,0.63,VWS V14.00,2013-02-23 14:33:00,
2013-02-23 09:37:00,41.7,40.7,29.95,ESE,115,2.0,2.0,96,0.00,,---,0.63,VWS V14.00,2013-02-23 14:37:00,
2013-02-23 09:42:00,41.9,40.8,29.94,ESE,115,2.0,4.0,96,0.00,,---,0.63,VWS V14.00,2013-02-23 14:42:00,
2013-02-23 09:47:00,42.0,40.9,29.94,ESE,115,0.0,4.0,96,0.00,,---,0.63,VWS V14.00,2013-02-23 14:47:00,
2013-02-23 09:52:00,42.2,41.1,29.94,ESE,115,0.0,4.0,96,0.00,,---,0.63,VWS V14.00,2013-02-23 14:52:00,
2013-02-23 09:57:00,42.2,41.1,29.95,ESE,115,0.0,0.0,96,0.00,,---,0.63,VWS V14.00,2013-02-23 14:57:00,
2013-02-23 10:02:00,42.3,41.2,29.95,ESE,115,0.0,1.0,96,0.00,,---,0.63,VWS V14.00,2013-02-23 15:02:00,
2013-02-23 10:07:00,42.3,41.2,29.94,ESE,115,0.0,2.0,96,0.00,,---,0.63,VWS V14.00,2013-02-23 15:07:00,
2013-02-23 10:12:00,42.3,41.2,29.95,ESE,113,2.0,2.0,96,0.00,,---,0.63,VWS V14.00,2013-02-23 15:12:00,
2013-02-23 10:17:00,42.4,41.3,29.95,ESE,113,0.0,2.0,96,0.01,,---,0.64,VWS V14.00,2013-02-23 15:17:00,
2013-02-23 10:22:00,42.4,41.3,29.94,ESE,113,1.0,2.0,96,0.01,,---,0.64,VWS V14.00,2013-02-23 15:22:00,
2013-02-23 10:27:00,42.5,41.4,29.91,ESE,111,4.0,5.0,96,0.01,,---,0.64,VWS V14.00,2013-02-23 15:27:00,
2013-02-23 10:32:00,42.6,41.5,29.93,ESE,107,1.0,5.0,96,0.01,,---,0.64,VWS V14.00,2013-02-23 15:32:00,
2013-02-23 10:37:00,42.7,41.6,29.93,North,11,2.0,5.0,96,0.01,,---,0.64,VWS V14.00,2013-02-23 15:37:00,
2013-02-23 10:42:00,42.8,41.7,29.93,North,11,0.0,5.0,96,0.01,,---,0.64,VWS V14.00,2013-02-23 15:42:00,
2013-02-23 10:47:00,42.9,41.8,29.93,North,11,0.0,5.0,96,0.01,,---,0.64,VWS V14.00,2013-02-23 15:47:00,
2013-02-23 10:52:00,42.9,41.8,29.94,North,355,4.0,5.0,96,0.01,,---,0.64,VWS V14.00,2013-02-23 15:52:00,
2013-02-23 10:57:00,42.8,41.7,29.93,North,5,0.0,0.0,96,0.01,,---,0.64,VWS V14.00,2013-02-23 15:57:00,
2013-02-23 11:02:00,42.8,41.7,29.93,North,5,1.0,2.0,96,0.01,,---,0.64,VWS V14.00,2013-02-23 16:02:00,
2013-02-23 11:07:00,42.8,41.7,29.94,North,5,3.0,3.0,96,0.01,,---,0.64,VWS V14.00,2013-02-23 16:07:00,
2013-02-23 11:12:00,42.9,41.8,29.94,North,360,1.0,4.0,96,0.01,,---,0.64,VWS V14.00,2013-02-23 16:12:00,
2013-02-23 11:17:00,42.8,41.5,29.94,North,360,0.0,4.0,95,0.01,,---,0.64,VWS V14.00,2013-02-23 16:17:00,
2013-02-23 11:22:00,42.9,41.6,29.95,North,360,0.0,4.0,95,0.01,,---,0.64,VWS V14.00,2013-02-23 16:22:00,
2013-02-23 11:27:00,42.9,41.6,29.95,North,360,0.0,0.0,95,0.00,,---,0.64,VWS V14.00,2013-02-23 16:27:00,
2013-02-23 11:32:00,43.0,41.9,29.95,North,360,1.0,3.0,96,0.00,,---,0.64,VWS V14.00,2013-02-23 16:32:00,
2013-02-23 11:37:00,43.0,41.9,29.95,North,360,0.0,3.0,96,0.00,,---,0.64,VWS V14.00,2013-02-23 16:37:00,
2013-02-23 11:42:00,43.0,41.9,29.95,North,360,0.0,3.0,96,0.00,,---,0.64,VWS V14.00,2013-02-23 16:42:00,
2013-02-23 11:47:00,42.9,41.6,29.93,North,360,0.0,3.0,95,0.00,,---,0.64,VWS V14.00,2013-02-23 16:47:00,
2013-02-23 11:52:00,43.0,41.9,29.94,North,360,0.0,3.0,96,0.00,,---,0.64,VWS V14.00,2013-02-23 16:52:00,
2013-02-23 11:57:00,43.1,42.0,29.95,North,360,0.0,0.0,96,0.00,,---,0.64,VWS V14.00,2013-02-23 16:57:00,
2013-02-23 12:02:00,43.1,42.0,29.93,North,5,0.0,4.0,96,0.00,,---,0.64,VWS V14.00,2013-02-23 17:02:00,
2013-02-23 12:07:00,43.2,42.1,29.95,North,5,0.0,4.0,96,0.00,,---,0.64,VWS V14.00,2013-02-23 17:07:00,
2013-02-23 12:12:00,43.2,42.1,29.96,North,360,0.0,4.0,96,0.00,,---,0.64,VWS V14.00,2013-02-23 17:12:00,
2013-02-23 12:17:00,43.2,42.1,29.93,North,360,0.0,4.0,96,0.00,,---,0.64,VWS V14.00,2013-02-23 17:17:00,
2013-02-23 12:22:00,43.3,42.2,29.94,North,360,1.0,4.0,96,0.00,,---,0.64,VWS V14.00,2013-02-23 17:22:00,
2013-02-23 12:27:00,43.3,42.0,29.93,North,360,1.0,2.0,95,0.00,,---,0.64,VWS V14.00,2013-02-23 17:27:00,
2013-02-23 12:32:00,43.4,42.1,29.93,North,360,2.0,2.0,95,0.00,,---,0.64,VWS V14.00,2013-02-23 17:32:00,
2013-02-23 12:37:00,43.3,42.2,29.94,North,360,1.0,2.0,96,0.00,,---,0.64,VWS V14.00,2013-02-23 17:37:00,
2013-02-23 12:42:00,43.4,42.3,29.93,North,360,2.0,3.0,96,0.00,,---,0.64,VWS V14.00,2013-02-23 17:42:00,
2013-02-23 12:47:00,43.5,42.4,29.93,North,360,2.0,3.0,96,0.00,,---,0.64,VWS V14.00,2013-02-23 17:47:00,
2013-02-23 12:52:00,43.7,42.6,29.93,North,360,0.0,3.0,96,0.00,,---,0.64,VWS V14.00,2013-02-23 17:52:00,
2013-02-23 12:57:00,43.7,42.6,29.94,North,360,2.0,2.0,96,0.00,,---,0.64,VWS V14.00,2013-02-23 17:57:00,
2013-02-23 13:02:00,43.7,42.6,29.92,NNE,12,3.0,5.0,96,0.00,,---,0.64,VWS V14.00,2013-02-23 18:02:00,
2013-02-23 13:07:00,43.7,42.6,29.92,NNE,20,2.0,5.0,96,0.00,,---,0.64,VWS V14.00,2013-02-23 18:07:00,
2013-02-23 13:12:00,43.8,42.7,29.92,NNE,20,1.0,5.0,96,0.00,,---,0.64,VWS V14.00,2013-02-23 18:12:00,
2013-02-23 13:17:00,43.9,42.8,29.92,NNE,20,3.0,5.0,96,0.00,,---,0.64,VWS V14.00,2013-02-23 18:17:00,
2013-02-23 13:22:00,43.9,42.8,29.91,NNE,20,2.0,5.0,96,0.00,,---,0.64,VWS V14.00,2013-02-23 18:22:00,
2013-02-23 13:27:00,43.9,42.8,29.91,NNE,20,1.0,2.0,96,0.00,,---,0.64,VWS V14.00,2013-02-23 18:27:00,
2013-02-23 13:32:00,43.9,42.8,29.92,NNE,20,0.0,4.0,96,0.00,,---,0.64,VWS V14.00,2013-02-23 18:32:00,
2013-02-23 13:37:00,43.9,42.8,29.91,NNE,20,0.0,4.0,96,0.00,,---,0.64,VWS V14.00,2013-02-23 18:37:00,
2013-02-23 13:42:00,43.9,42.8,29.91,NNE,20,0.0,4.0,96,0.00,,---,0.64,VWS V14.00,2013-02-23 18:42:00,
2013-02-23 13:47:00,44.0,42.9,29.91,NNE,20,0.0,4.0,96,0.00,,---,0.64,VWS V14.00,2013-02-23 18:47:00,
2013-02-23 13:52:00,44.0,42.9,29.90,NNE,20,0.0,4.0,96,0.00,,---,0.64,VWS V14.00,2013-02-23 18:52:00,
2013-02-23 13:57:00,44.0,42.7,29.90,NNE,20,1.0,1.0,95,0.00,,---,0.64,VWS V14.00,2013-02-23 18:57:00,
2013-02-23 14:02:00,44.0,42.9,29.89,NNE,20,0.0,1.0,96,0.00,,---,0.64,VWS V14.00,2013-02-23 19:02:00,
2013-02-23 14:07:00,44.1,43.0,29.89,NNE,20,1.0,2.0,96,0.00,,---,0.64,VWS V14.00,2013-02-23 19:07:00,
2013-02-23 14:12:00,44.3,43.2,29.88,NNE,20,0.0,2.0,96,0.00,,---,0.64,VWS V14.00,2013-02-23 19:12:00,
2013-02-23 14:17:00,44.4,43.3,29.88,NNE,20,1.0,2.0,96,0.00,,---,0.64,VWS V14.00,2013-02-23 19:17:00,
2013-02-23 14:22:00,44.4,43.3,29.89,NNE,20,1.0,2.0,96,0.00,,---,0.64,VWS V14.00,2013-02-23 19:22:00,
2013-02-23 14:27:00,44.5,43.4,29.89,NNE,20,0.0,1.0,96,0.00,,---,0.64,VWS V14.00,2013-02-23 19:27:00,
2013-02-23 14:32:00,44.5,43.4,29.89,NNE,20,0.0,2.0,96,0.00,,---,0.64,VWS V14.00,2013-02-23 19:32:00,
2013-02-23 14:37:00,44.6,43.5,29.89,NNE,20,0.0,2.0,96,0.00,,---,0.64,VWS V14.00,2013-02-23 19:37:00,
2013-02-23 14:42:00,44.7,43.6,29.89,NNE,20,0.0,3.0,96,0.00,,---,0.64,VWS V14.00,2013-02-23 19:42:00,
2013-02-23 14:47:00,44.9,43.8,29.89,NNE,20,1.0,4.0,96,0.00,,---,0.64,VWS V14.00,2013-02-23 19:47:00,
2013-02-23 14:52:00,44.9,43.8,29.88,NNE,20,2.0,4.0,96,0.00,,---,0.64,VWS V14.00,2013-02-23 19:52:00,
2013-02-23 14:57:00,44.9,43.8,29.88,NNE,20,0.0,0.0,96,0.00,,---,0.64,VWS V14.00,2013-02-23 19:57:00,
2013-02-23 15:02:00,44.9,43.8,29.89,NNE,20,0.0,1.0,96,0.00,,---,0.64,VWS V14.00,2013-02-23 20:02:00,
2013-02-23 15:07:00,45.0,43.9,29.88,NNE,20,0.0,2.0,96,0.00,,---,0.64,VWS V14.00,2013-02-23 20:07:00,
2013-02-23 15:12:00,45.0,43.9,29.89,NNE,20,1.0,2.0,96,0.00,,---,0.64,VWS V14.00,2013-02-23 20:12:00,
2013-02-23 15:17:00,45.0,43.9,29.88,NNE,20,2.0,2.0,96,0.00,,---,0.64,VWS V14.00,2013-02-23 20:17:00,
2013-02-23 15:22:00,44.9,43.8,29.87,NNE,20,1.0,2.0,96,0.00,,---,0.64,VWS V14.00,2013-02-23 20:22:00,
2013-02-23 15:27:00,44.9,43.8,29.87,NNE,20,0.0,0.0,96,0.00,,---,0.64,VWS V14.00,2013-02-23 20:27:00,
2013-02-23 15:32:00,44.9,43.8,29.89,NNE,20,0.0,2.0,96,0.00,,---,0.64,VWS V14.00,2013-02-23 20:32:00,
2013-02-23 15:37:00,45.0,43.9,29.89,NNE,20,0.0,5.0,96,0.00,,---,0.64,VWS V14.00,2013-02-23 20:37:00,
2013-02-23 15:42:00,45.0,43.9,29.90,NNE,20,0.0,5.0,96,0.00,,---,0.64,VWS V14.00,2013-02-23 20:42:00,
2013-02-23 15:47:00,45.1,44.0,29.89,NNE,20,0.0,5.0,96,0.00,,---,0.64,VWS V14.00,2013-02-23 20:47:00,
2013-02-23 15:52:00,45.1,44.0,29.89,NNE,20,3.0,5.0,96,0.00,,---,0.64,VWS V14.00,2013-02-23 20:52:00,
2013-02-23 15:57:00,45.1,44.0,29.89,NNE,21,0.0,0.0,96,0.00,,---,0.64,VWS V14.00,2013-02-23 20:57:00,
2013-02-23 16:02:00,45.1,44.0,29.88,NNE,21,0.0,5.0,96,0.00,,---,0.64,VWS V14.00,2013-02-23 21:02:00,
2013-02-23 16:07:00,45.1,44.0,29.86,NNE,18,1.0,5.0,96,0.00,,---,0.64,VWS V14.00,2013-02-23 21:07:00,
2013-02-23 16:12:00,45.1,44.0,29.86,NNE,18,0.0,5.0,96,0.00,,---,0.64,VWS V14.00,2013-02-23 21:12:00,
2013-02-23 16:17:00,45.2,44.1,29.89,NNE,15,2.0,5.0,96,0.00,,---,0.64,VWS V14.00,2013-02-23 21:17:00,
2013-02-23 16:22:00,45.2,44.1,29.89,NE,36,1.0,10.0,96,0.00,,---,0.64,VWS V14.00,2013-02-23 21:22:00,
2013-02-23 16:27:00,45.2,44.1,29.88,NNE,32,0.0,1.0,96,0.00,,---,0.64,VWS V14.00,2013-02-23 21:27:00,
2013-02-23 16:32:00,45.1,44.0,29.88,North,360,0.0,4.0,96,0.00,,---,0.64,VWS V14.00,2013-02-23 21:32:00,
2013-02-23 16:37:00,45.1,44.0,29.88,North,360,0.0,4.0,96,0.00,,---,0.64,VWS V14.00,2013-02-23 21:37:00,
2013-02-23 16:42:00,45.1,44.0,29.88,NNE,25,5.0,5.0,96,0.00,,---,0.64,VWS V14.00,2013-02-23 21:42:00,
2013-02-23 16:47:00,45.0,43.9,29.88,NNE,15,0.0,5.0,96,0.00,,---,0.64,VWS V14.00,2013-02-23 21:47:00,
2013-02-23 16:52:00,44.9,43.8,29.88,NNE,13,1.0,5.0,96,0.00,,---,0.64,VWS V14.00,2013-02-23 21:52:00,
2013-02-23 16:57:00,44.9,43.8,29.87,NNE,13,1.0,1.0,96,0.00,,---,0.64,VWS V14.00,2013-02-23 21:57:00,
2013-02-23 17:02:00,44.8,43.7,29.87,NNE,13,0.0,3.0,96,0.00,,---,0.64,VWS V14.00,2013-02-23 22:02:00,
2013-02-23 17:07:00,44.8,43.7,29.87,NNE,13,0.0,3.0,96,0.00,,---,0.64,VWS V14.00,2013-02-23 22:07:00,
2013-02-23 17:12:00,44.7,43.6,29.88,NNE,15,0.0,3.0,96,0.00,,---,0.64,VWS V14.00,2013-02-23 22:12:00,
2013-02-23 17:18:00,44.8,43.7,29.88,NNE,15,2.0,3.0,96,0.00,,---,0.64,VWS V14.00,2013-02-23 22:18:00,
2013-02-23 17:23:00,44.8,43.7,29.88,NNE,15,0.0,3.0,96,0.00,,---,0.64,VWS V14.00,2013-02-23 22:23:00,
2013-02-23 17:28:00,44.8,43.7,29.87,NNE,15,0.0,0.0,96,0.00,,---,0.64,VWS V14.00,2013-02-23 22:28:00,
2013-02-23 17:33:00,44.8,43.7,29.86,NNE,15,0.0,1.0,96,0.00,,---,0.64,VWS V14.00,2013-02-23 22:33:00,
2013-02-23 17:38:00,44.7,43.6,29.86,NNE,15,0.0,3.0,96,0.00,,---,0.64,VWS V14.00,2013-02-23 22:38:00,
2013-02-23 17:43:00,44.8,43.7,29.84,NNE,17,1.0,3.0,96,0.00,,---,0.64,VWS V14.00,2013-02-23 22:43:00,
2013-02-23 17:48:00,44.7,43.6,29.85,NNE,17,0.0,3.0,96,0.00,,---,0.64,VWS V14.00,2013-02-23 22:48:00,
2013-02-23 17:53:00,44.7,43.6,29.85,NNE,15,2.0,3.0,96,0.00,,---,0.64,VWS V14.00,2013-02-23 22:53:00,
2013-02-23 17:58:00,44.7,43.4,29.83,NE,49,1.0,3.0,95,0.00,,---,0.64,VWS V14.00,2013-02-23 22:58:00,
2013-02-23 18:02:00,44.7,43.4,29.85,North,360,0.0,5.0,95,0.00,,---,0.64,VWS V14.00,2013-02-23 23:02:00,
2013-02-23 18:07:00,44.7,43.6,29.86,North,360,0.0,5.0,96,0.00,,---,0.64,VWS V14.00,2013-02-23 23:07:00,
2013-02-23 18:12:00,44.8,43.7,29.86,North,360,3.0,5.0,96,0.00,,---,0.64,VWS V14.00,2013-02-23 23:12:00,
2013-02-23 18:17:00,44.7,43.6,29.88,North,360,0.0,5.0,96,0.00,,---,0.64,VWS V14.00,2013-02-23 23:17:00,
2013-02-23 18:22:00,44.7,43.6,29.88,North,355,0.0,5.0,96,0.00,,---,0.64,VWS V14.00,2013-02-23 23:22:00,
2013-02-23 18:27:00,44.7,43.6,29.88,NNE,14,2.0,2.0,96,0.00,,---,0.64,VWS V14.00,2013-02-23 23:27:00,
2013-02-23 18:32:00,44.8,43.7,29.88,NNE,18,2.0,4.0,96,0.00,,---,0.64,VWS V14.00,2013-02-23 23:32:00,
2013-02-23 18:37:00,44.8,43.7,29.89,NNE,18,0.0,4.0,96,0.00,,---,0.64,VWS V14.00,2013-02-23 23:37:00,
2013-02-23 18:42:00,44.7,43.6,29.89,NNE,18,0.0,6.0,96,0.00,,---,0.64,VWS V14.00,2013-02-23 23:42:00,
2013-02-23 18:47:00,44.7,43.6,29.89,NNE,18,0.0,6.0,96,0.00,,---,0.64,VWS V14.00,2013-02-23 23:47:00,
2013-02-23 18:52:00,44.7,43.6,29.89,NNE,17,0.0,6.0,96,0.00,,---,0.64,VWS V14.00,2013-02-23 23:52:00,
2013-02-23 18:57:00,44.7,43.6,29.89,NNE,17,0.0,0.0,96,0.00,,---,0.64,VWS V14.00,2013-02-23 23:57:00,
2013-02-23 19:02:00,44.7,43.6,29.89,NNE,17,0.0,2.0,96,0.00,,---,0.64,VWS V14.00,2013-02-24 00:02:00,
2013-02-23 19:07:00,44.7,43.6,29.88,NNE,17,1.0,2.0,96,0.00,,---,0.64,VWS V14.00,2013-02-24 00:07:00,
2013-02-23 19:12:00,44.7,43.6,29.87,NNE,17,0.0,2.0,96,0.00,,---,0.64,VWS V14.00,2013-02-24 00:12:00,
2013-02-23 19:17:00,44.7,43.6,29.87,NNE,17,1.0,2.0,96,0.00,,---,0.64,VWS V14.00,2013-02-24 00:17:00,
2013-02-23 19:22:00,44.7,43.6,29.86,East,81,2.0,4.0,96,0.00,,---,0.64,VWS V14.00,2013-02-24 00:22:00,
2013-02-23 19:27:00,44.7,43.6,29.87,East,84,0.0,1.0,96,0.00,,---,0.64,VWS V14.00,2013-02-24 00:27:00,
2013-02-23 19:32:00,44.7,43.6,29.88,East,84,0.0,2.0,96,0.00,,---,0.64,VWS V14.00,2013-02-24 00:32:00,
2013-02-23 19:37:00,44.7,43.6,29.90,East,84,1.0,2.0,96,0.00,,---,0.64,VWS V14.00,2013-02-24 00:37:00,
2013-02-23 19:42:00,44.8,43.7,29.91,East,84,1.0,2.0,96,0.00,,---,0.64,VWS V14.00,2013-02-24 00:42:00,
2013-02-23 19:47:00,44.8,43.7,29.90,East,84,0.0,2.0,96,0.00,,---,0.64,VWS V14.00,2013-02-24 00:47:00,
2013-02-23 19:52:00,44.9,43.8,29.91,East,84,0.0,2.0,96,0.00,,---,0.64,VWS V14.00,2013-02-24 00:52:00,
2013-02-23 19:57:00,44.9,43.8,29.92,East,84,1.0,2.0,96,0.00,,---,0.64,VWS V14.00,2013-02-24 00:57:00,
2013-02-23 20:02:00,44.9,43.8,29.92,East,84,0.0,2.0,96,0.00,,---,0.64,VWS V14.00,2013-02-24 01:02:00,
2013-02-23 20:07:00,44.9,43.8,29.92,East,84,0.0,2.0,96,0.00,,---,0.64,VWS V14.00,2013-02-24 01:07:00,
2013-02-23 20:12:00,44.9,43.8,29.92,East,84,0.0,2.0,96,0.00,,---,0.64,VWS V14.00,2013-02-24 01:12:00,
2013-02-23 20:17:00,44.9,43.8,29.92,East,79,0.0,2.0,96,0.00,,---,0.64,VWS V14.00,2013-02-24 01:17:00,
2013-02-23 20:22:00,44.9,43.8,29.92,East,79,0.0,2.0,96,0.00,,---,0.64,VWS V14.00,2013-02-24 01:22:00,
2013-02-23 20:27:00,44.9,43.8,29.91,East,79,0.0,0.0,96,0.00,,---,0.64,VWS V14.00,2013-02-24 01:27:00,
2013-02-23 20:32:00,44.9,43.8,29.89,East,79,0.0,0.0,96,0.00,,---,0.64,VWS V14.00,2013-02-24 01:32:00,
2013-02-23 20:37:00,44.8,43.7,29.87,East,80,0.0,3.0,96,0.00,,---,0.64,VWS V14.00,2013-02-24 01:37:00,
2013-02-23 20:42:00,44.8,43.7,29.86,East,82,3.0,4.0,96,0.00,,---,0.64,VWS V14.00,2013-02-24 01:42:00,
2013-02-23 20:47:00,44.7,43.6,29.87,East,87,3.0,5.0,96,0.00,,---,0.64,VWS V14.00,2013-02-24 01:47:00,
2013-02-23 20:52:00,44.7,43.6,29.88,East,87,0.0,5.0,96,0.00,,---,0.64,VWS V14.00,2013-02-24 01:52:00,
2013-02-23 20:57:00,44.8,43.7,29.86,ESE,115,4.0,4.0,96,0.00,,---,0.64,VWS V14.00,2013-02-24 01:57:00,
2013-02-23 21:02:00,44.7,43.6,29.86,SE,142,5.0,5.0,96,0.00,,---,0.64,VWS V14.00,2013-02-24 02:02:00,
2013-02-23 21:07:00,44.8,43.7,29.88,South,174,4.0,6.0,96,0.00,,---,0.64,VWS V14.00,2013-02-24 02:07:00,
2013-02-23 21:12:00,44.8,43.7,29.88,South,178,4.0,6.0,96,0.00,,---,0.64,VWS V14.00,2013-02-24 02:12:00,
2013-02-23 21:17:00,44.8,43.7,29.86,South,178,1.0,6.0,96,0.00,,---,0.64,VWS V14.00,2013-02-24 02:17:00,
2013-02-23 21:22:00,44.8,43.7,29.86,South,177,0.0,6.0,96,0.00,,---,0.64,VWS V14.00,2013-02-24 02:22:00,
2013-02-23 21:27:00,44.8,43.7,29.86,South,177,0.0,0.0,96,0.00,,---,0.64,VWS V14.00,2013-02-24 02:27:00,
2013-02-23 21:32:00,44.9,43.8,29.86,South,177,0.0,1.0,96,0.00,,---,0.64,VWS V14.00,2013-02-24 02:32:00,
2013-02-23 21:37:00,44.9,43.8,29.85,South,177,0.0,1.0,96,0.00,,---,0.64,VWS V14.00,2013-02-24 02:37:00,
2013-02-23 21:42:00,44.9,43.8,29.84,South,177,0.0,1.0,96,0.00,,---,0.64,VWS V14.00,2013-02-24 02:42:00,
2013-02-23 21:47:00,45.0,43.9,29.85,South,177,0.0,1.0,96,0.00,,---,0.64,VWS V14.00,2013-02-24 02:47:00,
2013-02-23 21:52:00,45.0,43.9,29.84,South,177,0.0,1.0,96,0.00,,---,0.64,VWS V14.00,2013-02-24 02:52:00,
2013-02-23 21:57:00,45.0,43.9,29.84,South,177,0.0,0.0,96,0.00,,---,0.64,VWS V14.00,2013-02-24 02:57:00,
2013-02-23 22:02:00,45.0,43.9,29.84,South,177,0.0,0.0,96,0.00,,---,0.64,VWS V14.00,2013-02-24 03:02:00,
2013-02-23 22:07:00,45.0,43.9,29.85,South,177,0.0,0.0,96,0.00,,---,0.64,VWS V14.00,2013-02-24 03:07:00,
2013-02-23 22:12:00,45.0,43.9,29.85,South,177,0.0,1.0,96,0.00,,---,0.64,VWS V14.00,2013-02-24 03:12:00,
2013-02-23 22:17:00,45.1,44.0,29.86,South,177,0.0,1.0,96,0.00,,---,0.64,VWS V14.00,2013-02-24 03:17:00,
2013-02-23 22:22:00,45.0,43.9,29.86,South,177,0.0,2.0,96,0.00,,---,0.64,VWS V14.00,2013-02-24 03:22:00,
2013-02-23 22:27:00,45.0,43.9,29.86,South,177,0.0,0.0,96,0.00,,---,0.64,VWS V14.00,2013-02-24 03:27:00,
2013-02-23 22:32:00,45.1,44.0,29.87,South,177,0.0,1.0,96,0.00,,---,0.64,VWS V14.00,2013-02-24 03:32:00,
2013-02-23 22:37:00,45.0,43.9,29.86,South,176,2.0,4.0,96,0.00,,---,0.64,VWS V14.00,2013-02-24 03:37:00,
2013-02-23 22:42:00,45.0,43.9,29.87,WSW,240,2.0,4.0,96,0.00,,---,0.64,VWS V14.00,2013-02-24 03:42:00,
2013-02-23 22:47:00,45.0,43.9,29.87,West,271,4.0,5.0,96,0.00,,---,0.64,VWS V14.00,2013-02-24 03:47:00,
2013-02-23 22:52:00,44.9,43.8,29.87,WNW,294,0.0,6.0,96,0.00,,---,0.64,VWS V14.00,2013-02-24 03:52:00,
2013-02-23 22:57:00,44.9,43.8,29.87,WNW,294,1.0,1.0,96,0.00,,---,0.64,VWS V14.00,2013-02-24 03:57:00,
2013-02-23 23:02:00,44.9,43.8,29.87,WNW,294,0.0,1.0,96,0.00,,---,0.64,VWS V14.00,2013-02-24 04:02:00,
2013-02-23 23:30:00,44.9,43.8,29.88,WNW,292,1.0,5.0,96,0.00,,---,0.64,VWS V14.00,2013-02-24 04:30:00,